Skip Page Navigation
NASA JPL Caltech
NASA Logo - Jet Propulsion Laboratory + View the NASA Portal
+ Near-Earth Object (NEO) Program
Search JPL
JPL Home Earth Solar System Stars & Galaxies Technology
JPL Solar System Dynamics
BODIES ORBITS EPHEMERIDES TOOLS PHYSICAL DATA DISCOVERY FAQ SITE MAP
JPL Small-Body Database Browser
Search: [ help ]  
(2000 UG11)
Classification: Apollo [NEO, PHA]          SPK-ID: 3054371
Ephemeris | Orbit Diagram | Orbital Elements | Physical Parameters | Close-Approach Data ]

[ hide orbit diagram ]
Orbit Diagram
Note: Make sure you have Java enabled on your browser to see the applet. This applet is provided as a 3D orbit visualization tool. The applet was implemented using 2-body methods, and hence should not be used for determining accurate long-term trajectories (over several years or decades) or planetary encounter circumstances. For accurate long-term ephemerides, please instead use our Horizons system.
Orbit Viewer

Additional Notes: the orbits shown in the applet are color coded. The planets are white lines, and the asteroid/comet is a blue line. The bright white line indicates the portion of the orbit that is above the ecliptic plane, and the darker portion is below the ecliptic plane. Likewise for the asteroid/comet orbit, the light blue indicates the portion above the ecliptic plane, and the dark blue the portion below the ecliptic plane.

Orbit Viewer applet originally written and kindly provided by Osamu Ajiki (AstroArts), and further modified by Ron Baalke (JPL).


Orbital Elements at Epoch 2456400.5 (2013-Apr-18.0) TDB
Reference: JPL 38 (heliocentric ecliptic J2000)
 Element Value Uncertainty (1-sigma)   Units 
e .572727508399051 3.4434e-08  
a 1.928660364209317 1.1973e-08 AU
q .8240635192677089 6.4486e-08 AU
i 8.923634679008277 8.3636e-06 deg
node 224.2273222200791 3.0752e-06 deg
peri 240.516805141622 1.1218e-05 deg
M 217.029709933073 1.6868e-05 deg
tp 2456789.030715184572
(2014-May-11.53071518)
4.9452e-05 JED
period 978.3225410046366
2.68
9.1104e-06
2.494e-08
d
yr
n .3679768020374109 3.4267e-09 deg/d
Q 3.033257209150926 1.8831e-08 AU
  Orbit Determination Parameters
   # obs. used (total)      421  
   # delay obs. used      3  
   # Doppler obs. used      1  
   data-arc span      3104 days (8.50 yr)  
   first obs. used      2000-10-21  
   last obs. used      2009-04-21  
   planetary ephem.      DE405  
   SB-pert. ephem.      SB405-CPV-2  
   condition code      0  
   fit RMS      .507  
   data source      ORB  
   producer      Otto Matic  
   solution date      2011-Oct-08 00:50:10  

Additional Information
 Earth MOID = .00757635 AU 
 T_jup = 3.684 
[ show covariance matrix ]

Ephemeris | Orbit Diagram | Orbital Elements | Physical Parameters | Close-Approach Data ]

Physical Parameter Table
Parameter Symbol Value Units Sigma Reference Notes
absolute magnitude H 20.304 mag 1.1849 38 autocmod 2.5a
rotation period rot_per 4.44 h n/a Asteroid Lightcurve DataBase (Rev. 2013-May-01) Published Reference List:
[Pravec, P.; et al. (2006) Icarus 181, 63-93.]

[ show close-approach data ]
Ephemeris | Orbit Diagram | Orbital Elements | Physical Parameters | Close-Approach Data ]
ABOUT SSD CREDITS/AWARDS PRIVACY/COPYRIGHT GLOSSARY LINKS
FirstGov 2013-May-21 10:42 UT
(server date/time)  
NASA Home Page
Site Manager:   Donald K. Yeomans
Webmaster  Alan B. Chamberlin